[[{"header":{"parameterUnit":"m.s-1","parameterCategory":1,"la1":30.2991,"la2":30.254,"lo1":-89.0895,"lo2":-89.0444,"dy":0.0017,"dx":0.0017,"nx":28,"ny":28,"refTime":"2023-06-28T21:00:00:Z","depth":0,"parameterNumber":2,"parameterNumberName":"U-component_of_WINDS"},"data":[0,0,0,0,0,0,0,0,0,0,0,0,0,0,0,0,0,0,0,0,0,0,0,0,0,0,0,0,0,0,0,0,0,0,0,0,0,0,0,0,0,0,0,0,0,0,0,0,0,0,0,0,0,0,0,0,0,0,1.165,1.1649,0,1.1572,1.1571,1.157,1.1446,1.1444,1.1442,1.144,1.1368,1.1368,1.1369,0,0,0,0,0,0,0,0,0,0,0,0,0,1.1698,1.1698,1.165,1.1649,1.1648,1.1572,1.1571,1.157,1.1447,1.1444,1.1441,1.1439,1.1368,1.1368,1.1369,0,0,0,0,0,0,0,0,0,0,0,0,0,1.1655,1.1698,1.165,1.1577,1.157,1.1572,1.1571,1.157,1.1447,1.1444,1.144,1.1437,1.1368,1.1368,1.1369,1.1439,0,0,1.137,1.137,0,0,0,0,0,0,0,0,1.1657,1.1653,1.1589,1.1582,1.1574,1.1515,1.1562,1.1526,1.1448,1.1494,1.144,1.1436,1.142,1.1416,1.1409,1.1436,1.1433,1.137,1.137,1.137,1.137,0,0,0,0,0,0,0,1.166,1.1656,1.1619,1.1588,1.1579,1.155,1.154,1.1554,1.1478,1.149,1.1481,1.1473,1.1416,1.1409,1.1407,1.1432,1.137,1.137,1.137,1.137,1.151,1.1513,0,0,0,0,0,0,1.1673,1.1659,1.1622,1.1617,1.1608,1.1552,1.1541,1.1538,1.1477,1.1464,1.1476,1.1467,1.1411,1.1407,1.1404,1.1481,1.137,1.137,1.1371,1.1506,1.1511,1.1515,0,0,0,0,0,0,1.1675,1.1671,1.1625,1.1635,1.1627,1.1555,1.1552,1.1538,1.1531,1.1466,1.1453,1.1483,1.1408,1.1403,1.143,1.1477,1.1371,1.1371,1.1502,1.1508,1.1513,1.1637,0,0,0,0,0,0,1.1677,1.1672,1.1697,1.1637,1.1627,1.1652,1.1555,1.1539,1.1531,1.1519,1.1469,1.1458,1.1405,1.143,1.1431,1.1475,1.1371,1.1498,1.1505,1.1511,1.1629,1.1646,1.1661,0,0,0,0,0,1.1679,1.1738,1.1699,1.1695,1.1656,1.1654,1.1649,1.1584,1.1536,1.1561,1.1518,1.146,1.1471,1.1434,1.1433,1.1479,1.1495,1.1503,1.151,1.1621,1.1643,1.166,0,0,0,0,0,0,1.1809,1.1729,1.1685,1.1726,1.1697,1.1633,1.1663,1.1609,1.1596,1.1586,1.1509,1.1498,1.1535,1.151,1.147,1.1543,1.1474,1.1482,1.1558,1.1578,1.1594,1.16,1.1371,0,0,0,0,0,1.1842,1.1845,1.1775,1.1818,1.1805,1.1737,1.1734,1.1685,1.1654,1.1643,1.1603,1.1577,1.1574,1.1575,1.1569,1.1624,1.1611,1.1655,1.1671,1.1684,1.1693,1.1719,1.1737,1.154,1.154,1.154,0,0,1.1911,1.1867,1.1875,1.1843,1.1815,1.1821,1.1728,1.1739,1.1743,1.1645,1.1667,1.1637,1.1603,1.1643,1.1659,1.1623,1.1744,1.1694,1.1706,1.1707,1.1729,1.1748,1.1764,1.1546,1.1545,1.1544,0,0,1.204,1.2007,1.2038,1.2011,1.1969,1.1923,1.193,1.1874,1.1849,1.1868,1.1794,1.18,1.1797,1.1775,1.1764,1.1882,1.1827,1.1882,1.1968,1.1994,1.2009,1.2023,1.2065,1.2081,1.1891,1.1891,1.1891,0,1.2132,1.2136,1.2062,1.2076,1.2064,1.1972,1.2003,1.1982,1.1942,1.1937,1.1896,1.1889,1.186,1.1894,1.1922,1.1916,1.1923,1.1888,1.2013,1.2025,1.2037,1.2076,1.2092,1.1898,1.1897,1.1896,1.1896,0,1.2251,1.2255,1.2285,1.2245,1.2236,1.226,1.219,1.2191,1.2143,1.2102,1.2123,1.2084,1.2068,1.2072,1.2027,1.2099,1.2078,1.2026,1.1955,1.2064,1.2099,1.2114,1.1908,1.1905,1.1903,1.1902,0,0,1.2462,1.2377,1.239,1.2369,1.2315,1.2318,1.2337,1.2318,1.232,1.2295,1.231,1.2309,1.2259,1.2246,1.2198,1.2221,1.2316,1.2166,1.2164,1.2195,1.2393,1.2433,1.2451,1.2279,1.2281,1.2283,1.2396,0,1.258,1.2605,1.2538,1.2581,1.2583,1.2494,1.2511,1.2481,1.2442,1.244,1.2398,1.2398,1.2333,1.2324,1.2343,1.2301,1.2355,1.2291,1.2293,1.2294,1.2305,1.247,1.2512,1.262,1.2409,1.2411,1.2413,0,1.2722,1.27,1.2743,1.2683,1.2682,1.2698,1.2674,1.2673,1.2637,1.2607,1.2591,1.2533,1.2549,1.248,1.2501,1.246,1.2456,1.2435,1.2438,1.2437,1.2361,1.2473,1.2653,1.267,1.2434,1.2432,1.2431,0,1.2871,1.2853,1.2875,1.2861,1.2793,1.2806,1.2779,1.2738,1.2731,1.2711,1.2705,1.2689,1.268,1.2669,1.2609,1.2564,1.2638,1.2564,1.2615,1.2616,1.2635,1.2635,1.2818,1.2632,1.2632,1.2632,1.2632,0,1.301,1.304,1.2941,1.2955,1.2985,1.2908,1.2941,1.2905,1.2869,1.2876,1.2799,1.2808,1.2726,1.2727,1.2679,1.2704,1.2701,1.2679,1.2666,1.2686,1.2689,1.2684,1.2675,1.2636,1.2635,1.2634,1.2634,0,1.3183,1.3118,1.3136,1.3069,1.3053,1.3078,1.3021,1.3032,1.2987,1.2997,1.2995,1.2925,1.2921,1.2858,1.2842,1.281,1.2854,1.2827,1.2866,1.2858,1.2912,1.2908,1.3099,1.312,1.2921,1.2923,1.2924,0,1.3277,1.3297,1.323,1.3227,1.3203,1.32,1.3191,1.3115,1.3109,1.3067,1.3084,1.3072,1.3059,1.3057,1.3006,1.2993,1.2965,1.3033,1.2963,1.2982,1.2967,1.2967,1.2968,1.3049,1.3051,1.3053,1.3055,0,1.345,1.3415,1.3403,1.338,1.337,1.3349,1.3323,1.3326,1.3242,1.3239,1.3232,1.3222,1.3202,1.3193,1.3169,1.3143,1.3086,1.3076,1.3088,1.3109,1.3131,1.312,1.2907,1.3073,1.3071,1.307,1.3069,1.3068,1.3585,1.3598,1.3553,1.3542,1.3513,1.349,1.3497,1.3451,1.3443,1.3419,1.3375,1.3375,1.3337,1.3299,1.3278,1.3277,1.3243,1.3259,1.3264,1.3269,1.328,1.3129,1.3273,1.3272,1.3272,1.3271,1.3271,0,1.3754,1.372,1.371,1.3674,1.3666,1.3608,1.3576,1.3574,1.3573,1.3541,1.3528,1.352,1.3509,1.3457,1.3441,1.3451,1.3424,1.3449,1.3448,1.3443,1.3312,1.3303,1.3471,1.3471,1.3471,1.3471,1.3471,1.3471,1.3841,1.386,1.382,1.3824,1.379,1.3786,1.3773,1.3751,1.3725,1.3718,1.3707,1.3672,1.3632,1.3612,1.36,1.3584,1.3583,1.3617,1.3594,1.3472,1.3453,1.3434,1.3426,1.3617,1.3617,1.3725,1.3726,1.3727]},{"header":{"parameterUnit":"m.s-1","parameterCategory":1,"la1":30.2991,"la2":30.254,"lo1":-89.0895,"lo2":-89.0444,"dy":0.0017,"dx":0.0017,"nx":28,"ny":28,"refTime":"2023-06-28T21:00:00:Z","depth":0,"parameterNumber":3,"parameterNumberName":"V-component_of_WINDS"},"data":[0,0,0,0,0,0,0,0,0,0,0,0,0,0,0,0,0,0,0,0,0,0,0,0,0,0,0,0,0,0,0,0,0,0,0,0,0,0,0,0,0,0,0,0,0,0,0,0,0,0,0,0,0,0,0,0,0,0,2.9185,2.9186,0,2.9251,2.9252,2.9252,2.9207,2.9205,2.9203,2.9201,2.9263,2.9266,2.927,0,0,0,0,0,0,0,0,0,0,0,0,0,2.9013,2.9016,2.9185,2.9186,2.9187,2.9251,2.9252,2.9253,2.9208,2.9205,2.9203,2.92,2.9262,2.9266,2.927,0,0,0,0,0,0,0,0,0,0,0,0,0,2.9084,2.9017,2.9185,2.9172,2.9172,2.9251,2.9252,2.9253,2.9208,2.9205,2.9202,2.9199,2.926,2.9265,2.9271,2.9364,0,0,2.9287,2.9289,0,0,0,0,0,0,0,0,2.908,2.909,2.9173,2.9173,2.9173,2.9218,2.9214,2.929,2.9209,2.9194,2.9201,2.9198,2.925,2.9256,2.9275,2.9367,2.9369,2.9287,2.929,2.9293,2.9294,0,0,0,0,0,0,0,2.9075,2.9087,2.9211,2.9174,2.9174,2.9161,2.9167,2.9228,2.9238,2.9195,2.9192,2.9201,2.9249,2.927,2.9276,2.937,2.9287,2.9292,2.9295,2.9297,2.954,2.9544,0,0,0,0,0,0,2.9072,2.9083,2.9209,2.9213,2.9118,2.9166,2.9174,2.9206,2.9237,2.9239,2.9203,2.9198,2.9262,2.927,2.9278,2.9389,2.9293,2.9298,2.9301,2.9537,2.9541,2.9545,0,0,0,0,0,0,2.9069,2.9084,2.9206,2.9147,2.9162,2.9173,2.9209,2.9209,2.923,2.9244,2.9244,2.9223,2.926,2.927,2.9343,2.939,2.93,2.9305,2.9533,2.9538,2.9543,2.9611,0,0,0,0,0,0,2.9064,2.9083,2.912,2.9149,2.9165,2.9273,2.9212,2.9213,2.924,2.9234,2.9262,2.9264,2.9258,2.9335,2.9348,2.9396,2.9309,2.9529,2.9536,2.9541,2.9605,2.9618,2.9629,0,0,0,0,0,2.9058,2.9136,2.9123,2.9138,2.9213,2.9276,2.9285,2.9279,2.9244,2.928,2.9289,2.9263,2.9383,2.9343,2.9357,2.9407,2.9526,2.9534,2.9541,2.9599,2.9615,2.9629,0,0,0,0,0,0,2.9111,2.9139,2.9125,2.9215,2.9243,2.9268,2.9314,2.9296,2.9333,2.9326,2.9315,2.9322,2.9398,2.9409,2.9365,2.9498,2.9448,2.9459,2.9488,2.9503,2.9515,2.9511,2.9313,0,0,0,0,0,2.9134,2.9185,2.9205,2.9282,2.9298,2.9304,2.9331,2.9324,2.9352,2.9363,2.9377,2.9403,2.9447,2.9475,2.9516,2.9606,2.9611,2.9647,2.9659,2.9669,2.9678,2.9725,2.9741,2.9569,2.9569,2.9569,0,0,2.918,2.9202,2.9234,2.9294,2.9315,2.9366,2.9314,2.937,2.9407,2.9371,2.9441,2.9452,2.948,2.9562,2.9598,2.9574,2.9727,2.9678,2.9686,2.969,2.9735,2.9751,2.9765,2.9574,2.9573,2.9572,0,0,2.929,2.9313,2.9379,2.9402,2.9435,2.9438,2.9454,2.9481,2.9488,2.9558,2.9532,2.9574,2.9649,2.9671,2.9691,2.9809,2.9786,2.9822,2.9885,2.9931,2.9945,2.9957,2.9998,3.0013,2.9831,2.9831,2.9831,0,2.9343,2.9421,2.9415,2.9473,2.9499,2.9471,2.9536,2.9558,2.9602,2.9619,2.9592,2.9685,2.9702,2.9788,2.9817,2.9834,2.9851,2.9819,2.9944,2.9956,2.9967,3.0006,3.0022,2.9835,2.9835,2.9834,2.9834,0,2.9484,2.9538,2.9587,2.9633,2.9664,2.9726,2.9727,2.9759,2.9748,2.9754,2.9824,2.9844,2.9888,2.9907,2.9897,2.9991,2.9975,2.9946,2.9896,2.9988,3.0024,3.0039,2.9841,2.984,2.9838,2.9837,0,0,2.9631,2.9672,2.969,2.971,2.9744,2.9785,2.9844,2.9889,2.9916,2.9946,2.9995,3.0059,3.0032,3.0055,3.0047,3.0087,3.0178,3.0053,3.0053,3.0075,3.0282,3.0304,3.0322,3.0163,3.0166,3.0168,3.0279,0,2.9743,2.9849,2.9845,2.9943,2.9992,2.9964,3.0015,3.0041,3.0047,3.0087,3.0092,3.0138,3.0099,3.0113,3.0152,3.0159,3.0219,3.0151,3.0206,3.0208,3.0201,3.0341,3.0365,3.0469,3.0294,3.0296,3.0298,0,2.9889,2.9927,3.0031,3.0057,3.0077,3.0124,3.0164,3.0203,3.023,3.0231,3.0258,3.0242,3.0299,3.0248,3.0325,3.0279,3.0301,3.0307,3.0311,3.0316,3.0259,3.035,3.0502,3.0518,3.032,3.0319,3.0317,0,2.9985,3.0062,3.0134,3.0151,3.0184,3.0217,3.0232,3.0256,3.0283,3.0317,3.0334,3.0373,3.0395,3.0424,3.0419,3.0382,3.0498,3.0446,3.0499,3.05,3.0526,3.0524,3.0684,3.0539,3.0539,3.0539,3.0539,0,3.0111,3.0176,3.0177,3.0222,3.0292,3.0285,3.0354,3.0365,3.0386,3.043,3.0407,3.0449,3.0439,3.048,3.0475,3.054,3.055,3.0551,3.0549,3.0554,3.0554,3.0568,3.0561,3.0543,3.0542,3.0541,3.0541,0,3.0231,3.0235,3.0312,3.0337,3.0344,3.0395,3.0415,3.0455,3.0459,3.0515,3.0527,3.0533,3.0579,3.0577,3.0628,3.0625,3.0705,3.0695,3.0697,3.0695,3.0749,3.0744,3.0924,3.0947,3.0787,3.0789,3.079,0,3.0312,3.0361,3.0391,3.0421,3.0438,3.0485,3.0512,3.0506,3.0535,3.0569,3.0605,3.065,3.0685,3.076,3.0767,3.0806,3.0796,3.0856,3.0802,3.0804,3.0797,3.0794,3.0799,3.0867,3.0869,3.087,3.0872,0,3.0454,3.0453,3.0496,3.0539,3.0573,3.0605,3.0635,3.066,3.0656,3.0689,3.0738,3.0765,3.0819,3.0863,3.09,3.0912,3.0891,3.0889,3.0903,3.0908,3.0908,3.0909,3.0727,3.0885,3.0883,3.0883,3.0882,3.0881,3.0556,3.0599,3.0627,3.0674,3.0697,3.0725,3.0765,3.0774,3.0815,3.0859,3.0852,3.0906,3.0929,3.0977,3.0993,3.1033,3.1012,3.1032,3.1038,3.1043,3.105,3.0901,3.104,3.1039,3.1039,3.1039,3.1038,0,3.0697,3.0714,3.0758,3.0802,3.0839,3.0817,3.0849,3.088,3.0929,3.0954,3.099,3.1044,3.1086,3.1097,3.1137,3.1167,3.1158,3.1178,3.1176,3.1179,3.1067,3.1051,3.1184,3.1184,3.1184,3.1184,3.1184,3.1184,3.0775,3.0846,3.0849,3.0929,3.0944,3.0999,3.1019,3.1044,3.1064,3.1127,3.1163,3.117,3.1188,3.123,3.1267,3.1268,3.1284,3.1308,3.1306,3.1201,3.1186,3.1173,3.1157,3.1311,3.1311,3.1414,3.1415,3.1416]}]]